Location: Aranbee
(34.0885°N, 118.2342°W)
Time: 08:07:15
(UTC+00:00)

Courier 1B Rocket - Pass Details

Date: 03 December 2020
Orbit: 920 x 1202 km, 28.2° (Epoch: 27 January)

Event Time Altitude Azimuth Distance (km) Brightness Sun altitude
Rises 08:41:26 0° 195° (SSW) 3,876 - -72.5°
Reaches altitude 10° 08:46:47 10° 163° (SSE) 2,998 - -71.6°
Maximum altitude 08:48:45 11° 147° (SSE) 2,937 - -71.3°
Drops below altitude 10° 08:50:44 10° 131° (SE) 3,048 - -70.9°
Sets 08:56:19 0° 100° (E) 4,064 - -70.0°
